Location: Bremen
(53.0793°N, 8.8017°E)
Time: 18:06:21
(UTC+02:00)

Explorer 7 - Pass Details

Date: 14 April 2024
Orbit: 467 x 626 km, 50.3° (Epoch: 17 May)

Event Time Altitude Azimuth Distance (km) Brightness Sun altitude
Rises 15:57:42 0° 239° (WSW) 2,911 11.5 36.9°
Reaches altitude 10° 16:00:06 10° 233° (SW) 1,998 11.0 36.6°
Maximum altitude 16:04:30 45° 161° (SSE) 843 8.4 36.1°
Drops below altitude 10° 16:08:46 10° 89° (E) 1,945 9.3 35.6°
Sets 16:11:05 0° 84° (E) 2,824 10.0 35.3°
